Regional Weather Roundup
Issued by NWS Charleston, SC

Current Version | Previous Version | Text Only | Print | Product List | Glossary Off
Versions: 1 2 3 4 5 6 7 8 9 10 11 12 13 14 15 16 17 18 19 20 21 22 23 24 25 26 27 28 29 30 31 32 33 34 35 36 37 38 39 40 41 42 43 44 45 46 47 48 49 50
000 ASUS42 KCHS 040812 RWRCHS REGIONAL WEATHER ROUNDUP NATIONAL WEATHER SERVICE CHARLESTON SC 300 AM EST SUN DEC 04 2016 NOTE: "FAIR" INDICATES FEW OR NO CLOUDS BELOW 12,000 FEET WITH NO SIGNIFICANT WEATHER AND/OR OBSTRUCTIONS TO VISIBILITY. NOT ALL STATIONS ARE QUALITY CONTROLLED. USE DATA WITH CAUTION... ESPECIALLY DEWPOINT OBSERVATIONS. SCZ027-030-031-034>040-042>050-040900- ...SOUTHEAST SOUTH CAROLINA... CITY SKY/WX TMP DP RH WIND PRES REMARKS N CHARLESTON CLOUDY 51 37 58 N5 30.23S WATERFRONT PRK N/A 52 43 71 NE7 30.21S MOUNT PLEASANT NOT AVBL JOHNS ISLAND CLOUDY 52 41 66 N7 30.22S PINOPOLIS N/A 48 39 71 VRB3 30.15S MONCKS CORNER CLOUDY 48 36 61 CALM 30.24S SUMMERVILLE CLOUDY 48 43 81 CALM 30.25R BEAUFORT MCAS CLOUDY 53 41 63 NE8 30.21S BEAUFORT ARPT CLOUDY 54 45 71 NE6 30.20R HILTON HEAD IS PTCLDY 57 43 58 VRB7G13 30.20S WALTERBORO CLOUDY 50 43 76 CALM 30.25R ALLENDALE CLOUDY 50 41 71 CALM 30.22S ...SOUTHERN MIDLANDS AND PEE DEE... CITY SKY/WX TMP DP RH WIND PRES REMARKS GEORGETOWN NOT AVBL KINGSTREE CLOUDY 45 39 81 CALM 30.25R ORANGEBURG CLOUDY 49 42 77 NE3 30.25R BARNWELL NOT AVBL AIKEN CLOUDY 45 41 87 E6 30.25F MANNING NOT AVBL COLUMBIA CLOUDY 49 44 83 CALM 30.24F SUMTER CLOUDY 47 42 81 CALM 30.23R FLORENCE CLOUDY 47 42 83 CALM 30.25R MYRTLE BEACH CLOUDY 50 34 53 N5 30.26R N MYRTLE BEACH CLOUDY 48 35 60 NE7 30.23R $$ GAZ063-065-086>088-099>101-113>116-118-119-134>141-150-040900- ...SOUTHEAST GEORGIA... CITY SKY/WX TMP DP RH WIND PRES REMARKS SAVANNAH ARPT CLOUDY 53 43 68 NE7 30.19F HUNTER AAF CLOUDY 54 49 81 NE5 30.16F FORT STEWART CLOUDY 53 43 68 CALM 30.14F STATESBORO CLOUDY 52 44 73 NE3 30.21R SYLVANIA CLOUDY N/A N/A N/A NE6 30.22S CLAXTON PTSUNNY 52 46 77 N3 30.19R ...CSRA...CENTRAL AND FAR SOUTHEAST GEORGIA... CITY SKY/WX TMP DP RH WIND PRES REMARKS THOMSON CLOUDY 49 48 99 CALM 30.24F AUGUSTA-BUSH CLOUDY 50 43 77 NE5 30.21F AUGUSTA-DANIEL CLOUDY 50 41 71 E6 30.21F SWAINSBORO CLOUDY 52 41 66 NE5 30.20F VIDALIA CLOUDY 54 46 76 NE5 30.19R EASTMAN CLOUDY 55 33 43 E6 30.18F HAZLEHURST FAIR 55 43 63 E3 30.16R ALMA CLOUDY 53 45 74 E6 30.14F WAYCROSS CLOUDY 55 52 88 SE7 30.15F JESUP FAIR 52 50 93 E3 30.16F BAXLEY FAIR 54 46 76 E5 30.15S BRUNSWICK MOCLDY 54 52 94 NE6 30.18S SAINT SIMONS MOCLDY 61 50 67 E9 30.16F $$ SCZ027-028-034-036>038-045-046-048>050-GAZ119-141-040900- ...LAKE AND SUPPLEMENTAL COASTAL OBSERVATIONS... STATION/POSITION TIME TEMP WIND PRES WAVE SWELL AIR SEA DIR/SP/G HT/PER HT/PER/DIR (UTC) (F) (DEG/KT/KT) (MB) (FT/S) (FT/S/D) WINYAH BAY 0645 49 360/ 2 1023.0 LAKE MURRAY 0720 50 110/ 3/ 4 1023.7 ACE BASIN NERRS 0645 51 50/ 1 1023.0 FORT PULASKI 0748 59 62 100/ 14/ 16 1022.2F SAPELO ISLAND 0700 59 70/ 6 1022.0 $$ ANZ835-935-AMZ111-154-330-350-352-354-370-450-454-472-040900- ...C-MAN AND BUOY OBSERVATIONS... STATION/POSITION TIME TEMP WIND PRES WAVE SWELL AIR SEA DIR/SP/G HT/PER HT/PER/DIR (UTC) (F) (DEG/KT/KT) (MB) (FT/S) (FT/S/D) BUOY 41004 0750 61 74 60/ 10/ 12 1022.1R 3/ 8 2/100/ 8 BUOY 41008 0750 63 64 80/ 16/ 17 1021.2F 4/ 5 2/ 10/ 9 FOLLY BEACH CMAN 0700 55 50/ 9/ 10 1023.7S CAPERS NEARSHORE 0708 55 62 50/ 10/ 14 1023.0F FRIPP NEARSHORE 0708 58 62 70/ 12/ 16 1022.6S STATION/POSITION TIME TEMP WIND PRES WAVE SWELL AIR SEA DIR/SP/G HT/PER HT/PER/DIR (UTC) (F) (DEG/KT/KT) (MB) (FT/S) (FT/S/D) 5E ST. MARYS GA 0730 66 N/A 4/ 5 FRYING PAN BUOY 0750 58 73 40/ 12/ 16 1022.4F 3/ 9 2/ 90/ 9 BUOY 41025 0750 53 75 20/ 14/ 19 1023.8F 5/ 9 3/ 60/ 9 CAPE LOOKOUT NC 0800 49 10/ 9/ 11 1023.4F BUOY 41002 0750 64 73 40/ 10/ 14 1021.2F 5/ 9 5/ 50/ 9 BUOY 41010 NOT AVBL ST AUGUSTINE FL 0800 68 66 110/ 8/ 8 1021.0F $$

USA.gov is the U.S. government's official web portal to all federal, state and local government web resources and services.